When you browse on this site, cookies collect data to enhance your experience and personalize the content and advertising you see.
Visit our Privacy Policy to learn more. By continuing to use the site, you agree to this use of cookies and data.
  • In Romania
  • List of Countries
  • For 7 days
  • Water Temperature
  • Weather Map
  • Weather Widgets
  • user-avatar
    Login

    Hourly Weather Trowbridge

    Today, 29 May, Friday

    Time Temperature Precipitation Wind Pressure Humidity
    00:00 +9°C° 0 mm 3 mps 768 mmHg 71%
    01:00 +9°C° 0 mm 3 mps 768 mmHg 73%
    02:00 +9°C° 0 mm 3 mps 768 mmHg 75%
    03:00 +9°C° 0 mm 3 mps 768 mmHg 77%
    04:00 +9°C° 0 mm 3 mps 768 mmHg 78%
    05:00 +10°C° 0 mm 3 mps 767 mmHg 79%
    06:00 +11°C° 0 mm 4 mps 767 mmHg 80%
    07:00 +13°C° 0 mm 4 mps 767 mmHg 76%
    08:00 +15°C° 0 mm 4 mps 767 mmHg 71%
    09:00 +18°C° 0 mm 4 mps 767 mmHg 66%
    10:00 +19°C° 0 mm 4 mps 767 mmHg 63%
    11:00 +20°C° 0 mm 4 mps 767 mmHg 60%
    12:00 +21°C° 0 mm 4 mps 767 mmHg 56%
    13:00 +21°C° 0 mm 4 mps 766 mmHg 56%
    14:00 +21°C° 0 mm 4 mps 766 mmHg 57%
    15:00 +22°C° 0 mm 4 mps 765 mmHg 57%
    16:00 +21°C° 0 mm 4 mps 765 mmHg 62%
    17:00 +20°C° 0 mm 3 mps 765 mmHg 67%
    18:00 +20°C° 0 mm 3 mps 764 mmHg 72%
    19:00 +17°C° 0 mm 3 mps 765 mmHg 73%
    20:00 +14°C° 0 mm 3 mps 765 mmHg 75%
    21:00 +12°C° 0 mm 3 mps 765 mmHg 76%
    22:00 +11°C° 0 mm 3 mps 765 mmHg 72%
    23:00 +10°C° 0 mm 3 mps 765 mmHg 68%

    Tomorrow, 30 May, Saturday

    Time Temperature Precipitation Wind Pressure Humidity
    00:00 +9°C° 0 mm 2 mps 765 mmHg 64%
    01:00 +8°C° 0 mm 2 mps 765 mmHg 66%
    02:00 +7°C° 0 mm 2 mps 765 mmHg 69%
    03:00 +7°C° 0 mm 2 mps 764 mmHg 72%
    04:00 +8°C° 0 mm 2 mps 764 mmHg 74%
    05:00 +8°C° 0 mm 2 mps 764 mmHg 77%
    06:00 +9°C° 0 mm 2 mps 764 mmHg 80%
    07:00 +12°C° 0 mm 3 mps 764 mmHg 77%
    08:00 +14°C° 0 mm 3 mps 764 mmHg 75%
    09:00 +17°C° 0 mm 3 mps 764 mmHg 73%
    10:00 +19°C° 0 mm 3 mps 764 mmHg 69%
    11:00 +20°C° 0 mm 4 mps 764 mmHg 65%
    12:00 +21°C° 0 mm 4 mps 764 mmHg 60%
    13:00 +22°C° 0 mm 4 mps 763 mmHg 60%
    14:00 +22°C° 0 mm 4 mps 763 mmHg 60%
    15:00 +22°C° 0 mm 4 mps 763 mmHg 60%
    16:00 +21°C° 0 mm 4 mps 763 mmHg 64%
    17:00 +21°C° 0 mm 3 mps 763 mmHg 68%
    18:00 +20°C° 0 mm 3 mps 763 mmHg 73%
    19:00 +18°C° 0 mm 3 mps 763 mmHg 76%
    20:00 +16°C° 0 mm 3 mps 763 mmHg 79%
    21:00 +13°C° 0 mm 3 mps 763 mmHg 82%
    22:00 +12°C° 0 mm 3 mps 763 mmHg 83%
    23:00 +11°C° 0 mm 3 mps 763 mmHg 83%

    Day after tomorrow, 31 May, Sunday

    Time Temperature Precipitation Wind Pressure Humidity
    00:00 +10°C° 0 mm 3 mps 764 mmHg 83%
    01:00 +10°C° 0 mm 3 mps 764 mmHg 86%
    02:00 +9°C° 0 mm 3 mps 764 mmHg 89%
    03:00 +9°C° 0 mm 3 mps 764 mmHg 92%
    04:00 +10°C° 0 mm 3 mps 764 mmHg 89%
    05:00 +11°C° 0 mm 3 mps 764 mmHg 87%
    06:00 +11°C° 0 mm 3 mps 764 mmHg 85%
    07:00 +13°C° 0 mm 4 mps 764 mmHg 79%
    08:00 +17°C° 0 mm 4 mps 764 mmHg 74%
    09:00 +19°C° 0 mm 4 mps 764 mmHg 68%
    10:00 +19°C° 0 mm 4 mps 765 mmHg 64%
    11:00 +20°C° 0 mm 4 mps 765 mmHg 61%
    12:00 +21°C° 0 mm 4 mps 765 mmHg 57%
    13:00 +21°C° 0 mm 4 mps 764 mmHg 57%
    14:00 +21°C° 0 mm 4 mps 764 mmHg 58%
    15:00 +21°C° 0 mm 3 mps 764 mmHg 58%
    16:00 +21°C° 0 mm 3 mps 764 mmHg 63%
    17:00 +20°C° 0 mm 3 mps 764 mmHg 68%
    18:00 +20°C° 0 mm 2 mps 764 mmHg 72%
    19:00 +18°C° 0 mm 2 mps 764 mmHg 76%
    20:00 +16°C° 0 mm 2 mps 764 mmHg 80%
    21:00 +13°C° 0 mm 3 mps 765 mmHg 83%
    22:00 +13°C° 0 mm 2 mps 765 mmHg 85%
    23:00 +12°C° 0 mm 2 mps 765 mmHg 87%

    1 June, Monday

    Time Temperature Precipitation Wind Pressure Humidity
    00:00 +10°C° 0 mm 2 mps 765 mmHg 90%
    01:00 +10°C° 0 mm 2 mps 765 mmHg 90%
    02:00 +9°C° 0 mm 2 mps 764 mmHg 91%
    03:00 +9°C° 0 mm 2 mps 764 mmHg 92%
    04:00 +9°C° 0 mm 2 mps 764 mmHg 89%
    05:00 +10°C° 0 mm 3 mps 764 mmHg 87%
    06:00 +10°C° 0 mm 3 mps 764 mmHg 85%
    07:00 +12°C° 0 mm 3 mps 764 mmHg 79%
    08:00 +14°C° 0 mm 4 mps 764 mmHg 73%
    09:00 +17°C° 0 mm 4 mps 764 mmHg 66%
    10:00 +18°C° 0 mm 4 mps 764 mmHg 63%
    11:00 +19°C° 0 mm 4 mps 764 mmHg 60%
    12:00 +20°C° 0 mm 4 mps 764 mmHg 57%
    13:00 +21°C° 0 mm 3 mps 763 mmHg 57%
    14:00 +21°C° 0 mm 3 mps 763 mmHg 57%
    15:00 +21°C° 0 mm 3 mps 763 mmHg 58%
    16:00 +21°C° 0 mm 3 mps 763 mmHg 63%
    17:00 +20°C° 0 mm 3 mps 762 mmHg 69%
    18:00 +20°C° 0 mm 3 mps 762 mmHg 74%
    19:00 +18°C° 0 mm 3 mps 762 mmHg 79%
    20:00 +16°C° 0 mm 2 mps 762 mmHg 84%
    21:00 +15°C° 0 mm 2 mps 763 mmHg 89%
    22:00 +14°C° 0 mm 2 mps 762 mmHg 90%
    23:00 +14°C° 0 mm 2 mps 762 mmHg 91%

    2 June, Tuesday

    Time Temperature Precipitation Wind Pressure Humidity
    00:00 +13°C° 0 mm 2 mps 762 mmHg 92%
    01:00 +12°C° 0 mm 2 mps 762 mmHg 92%
    02:00 +12°C° 0 mm 2 mps 761 mmHg 93%
    03:00 +10°C° 0 mm 2 mps 761 mmHg 94%
    04:00 +12°C° 0 mm 2 mps 761 mmHg 93%
    05:00 +12°C° 0 mm 2 mps 761 mmHg 92%
    06:00 +13°C° 0 mm 2 mps 760 mmHg 91%
    07:00 +14°C° 0 mm 2 mps 760 mmHg 84%
    08:00 +16°C° 0 mm 3 mps 760 mmHg 78%
    09:00 +17°C° 0 mm 3 mps 760 mmHg 71%
    10:00 +18°C° 0 mm 3 mps 760 mmHg 67%
    11:00 +19°C° 0 mm 3 mps 760 mmHg 62%
    12:00 +20°C° 0 mm 3 mps 759 mmHg 58%
    13:00 +20°C° 0 mm 3 mps 759 mmHg 58%
    14:00 +20°C° 0 mm 3 mps 758 mmHg 57%
    15:00 +20°C° 0 mm 3 mps 758 mmHg 57%
    16:00 +20°C° 0 mm 2 mps 757 mmHg 62%
    17:00 +19°C° 0 mm 2 mps 757 mmHg 67%
    18:00 +19°C° 0 mm 2 mps 757 mmHg 73%
    19:00 +18°C° 0 mm 2 mps 757 mmHg 75%
    20:00 +16°C° 0 mm 2 mps 756 mmHg 78%
    21:00 +15°C° 0 mm 2 mps 756 mmHg 81%
    22:00 +15°C° 0.1 mm 2 mps 756 mmHg 85%
    23:00 +13°C° 0.1 mm 3 mps 756 mmHg 89%

    3 June, Wednesday

    Time Temperature Precipitation Wind Pressure Humidity
    00:00 +13°C° 0.1 mm 3 mps 756 mmHg 92%
    01:00 +13°C° 0.7 mm 4 mps 755 mmHg 94%
    02:00 +13°C° 0.7 mm 4 mps 755 mmHg 95%
    03:00 +12°C° 0.7 mm 5 mps 754 mmHg 97%
    04:00 +12°C° 0.5 mm 5 mps 754 mmHg 97%
    05:00 +13°C° 0.5 mm 5 mps 754 mmHg 97%
    06:00 +13°C° 0.5 mm 5 mps 754 mmHg 96%
    07:00 +13°C° 0.8 mm 6 mps 754 mmHg 96%
    08:00 +13°C° 0.8 mm 6 mps 754 mmHg 96%
    09:00 +13°C° 0.8 mm 6 mps 754 mmHg 96%
    10:00 +12°C° 0.8 mm 7 mps 754 mmHg 95%
    11:00 +12°C° 0.8 mm 7 mps 754 mmHg 95%
    12:00 +12°C° 0.8 mm 7 mps 753 mmHg 95%
    13:00 +14°C° 0.1 mm 7 mps 753 mmHg 93%
    14:00 +15°C° 0.1 mm 7 mps 753 mmHg 91%
    15:00 +15°C° 0.1 mm 8 mps 753 mmHg 89%
    16:00 +15°C° 0 mm 8 mps 753 mmHg 87%
    17:00 +16°C° 0 mm 8 mps 753 mmHg 85%
    18:00 +16°C° 0 mm 8 mps 753 mmHg 83%
    19:00 +15°C° 0 mm 7 mps 753 mmHg 83%
    20:00 +14°C° 0 mm 7 mps 753 mmHg 84%
    21:00 +14°C° 0 mm 7 mps 753 mmHg 84%
    22:00 +12°C° 0 mm 7 mps 754 mmHg 84%
    23:00 +12°C° 0 mm 7 mps 754 mmHg 84%
    Show more